#timestamp,LO_Frequency,Hit,StdDev 
1536868815.5,286046996.6,N
1536868835.3,286046997.2,N
1536868855.1,286046999.2,N
1536868875.9,286046996.7,N
1536868895.7,286046999.4,N
1536868915.6,286046996.5,N
1536868935.4,286046997.7,N
1536868955.2,286046996.8,N
1536868975.1,286046997.7,N
1536868976.0,286046997.7,N
1536868995.8,286046998.0,N
1536869015.6,286046997.8,N
1536869035.5,286046995.6,N
1536869055.3,286046995.5,N
1536869075.2,286046997.5,N
1536869095.9,286046996.9,N
1536869115.7,286046999.5,N
1536869135.6,286046999.4,N
1536869155.4,286046999.3,N
1536869175.2,286046996.6,N
1536869195.1,286046998.4,N
1536869196.0,286046998.4,N
1536869215.8,286047000.8,N
1536869235.7,286047000.1,N
1536869255.5,286046999.7,N
1536869275.3,286047001.5,N
1536869295.2,286047001.6,N
1536869315.0,286047001.5,N
1536869315.9,286047001.5,N
1536869335.7,286047001.6,N
1536869355.6,286047003.5,N
1536869375.4,286047006.0,N
1536869395.3,286047004.3,N
1536869415.1,286047004.3,N
1536869416.0,286047004.3,N
1536869435.8,286047003.7,N
1536869455.7,286047002.5,N
1536869475.5,286047002.0,N
1536869495.3,286047002.5,N
1536869515.2,286047000.9,N
1536869535.0,286047002.2,N
1536869535.9,286047002.2,N
1536869555.8,286047001.9,N
1536869575.6,286047001.7,N
1536869595.4,286046999.9,N
1536869615.3,286046999.9,N
1536869635.1,286047002.4,N
1536869655.8,286047002.0,N
1536869675.7,286047003.5,N
1536869695.5,286047003.7,N
1536869715.4,286047003.3,N
1536869735.2,286047003.1,N
1536869755.0,286047005.6,Y
1536869755.9,286047005.6,P
1536869775.8,286047001.8,N
1536869795.6,286047001.4,N
1536869815.4,286047001.5,N
1536869835.3,286047002.3,N
1536869855.1,286047001.4,N
1536869875.9,286047004.1,N
1536869895.7,286047005.6,Y
1536869915.5,286047001.6,P
1536869935.4,286047001.6,P
1536869955.2,286047003.8,P
1536869975.0,286047004.3,Y
1536869975.9,286047004.3,P
1536869995.8,286047002.8,N
1536870015.6,286046999.9,N
1536870035.5,286046999.8,N
1536870055.3,286047001.9,N
1536870075.1,286047001.7,N
1536870095.9,286047003.7,N
1536870115.7,286047003.7,N
1536870135.5,286047004.1,N
1536870155.4,286047003.2,N
1536870175.2,286047003.2,N
1536870195.1,286047001.3,N
1536870196.0,286047001.3,N
1536870245.8,286047002.7,E
1536870255.7,286046998.1,N
1536870275.6,286046996.9,P
1536870295.4,286046996.6,P
1536870315.2,286046997.6,Y
1536870335.1,286047000.9,P
1536870336.0,286047000.9,N
1536870355.8,286047001.1,N
1536870375.6,286047001.2,N
1536870395.5,286047000.7,N
1536870415.3,286046999.3,N
1536870435.2,286046999.5,N
1536870455.9,286046999.3,N
1536870475.7,286046998.4,N
1536870495.6,286046998.5,N
1536870515.4,286047000.6,N
1536870535.2,286047002.7,N
1536870555.1,286046999.7,N
1536870556.0,286046999.7,N
1536870575.8,286047000.4,N
1536870595.6,286046999.7,N
1536870615.5,286047000.5,N
1536870635.3,286047002.1,N
1536870655.2,286046999.8,N
1536870675.9,286047002.7,N
1536870695.7,286047002.4,N
1536870715.6,286047001.5,N
1536870735.4,286047002.5,N
1536870755.2,286047001.9,N
1536870775.1,286047002.2,N
1536870776.0,286047002.2,N
1536870795.8,286047002.2,N
1536870815.7,286047002.5,N
1536870835.5,286047002.3,N
1536870855.3,286047001.8,N
1536870875.2,286047002.3,N
1536870895.9,286046999.7,N
1536870915.7,286046999.9,N
1536870935.6,286047000.3,N
1536870955.4,286047000.0,N
1536870975.2,286047000.2,N
1536870995.1,286047002.3,N
1536870996.0,286047002.3,N
1536871015.8,286047002.5,N
1536871035.7,286046999.7,N
1536871055.5,286047002.7,N
1536871075.3,286047001.9,N
1536871095.2,286047002.5,N
1536871115.0,286047001.0,N
1536871115.9,286047001.0,N
1536871135.7,286047000.1,N
1536871155.6,286046999.9,N
1536871175.4,286047000.1,N
1536871195.3,286046999.9,N
1536871215.1,286047001.8,N
1536871216.0,286047001.8,N
1536871235.8,286047002.1,N
1536871255.7,286047001.5,N
1536871275.5,286047002.7,N
1536871295.3,286047000.1,N
1536871315.2,286047000.4,N
1536871335.0,286047001.1,N
1536871335.9,286047001.1,N
1536871355.8,286047000.7,N
1536871375.6,286047000.9,N
1536871395.4,286046998.3,N
1536871415.3,286047000.4,N
1536871435.1,286047000.6,N
1536871455.8,286047001.1,N
1536871475.7,286046998.1,N
1536871495.5,286047001.2,N
1536871515.4,286046999.9,N
1536871535.2,286047000.0,N
1536871555.0,286047000.0,N
1536871555.9,286047000.0,N
1536871575.8,286047000.1,N
1536871595.6,286047000.1,N
1536871615.4,286046999.8,N
1536871635.3,286047000.2,N
1536871655.1,286047000.2,N
1536871675.9,286046999.9,N
1536871695.7,286047000.8,N
1536871715.5,286047002.8,N
1536871735.4,286047002.7,N
1536871755.2,286047000.5,N
1536871775.0,286047000.9,N
1536871775.9,286047000.9,N
1536871795.8,286046998.4,N
1536871815.6,286047000.6,N
1536871835.5,286047000.0,N
1536871855.3,286047000.6,N
1536871875.1,286047002.6,N
1536871895.9,286047002.3,N
1536871915.7,286047002.3,N
1536871935.5,286047002.5,N
1536871955.4,286047002.7,N
1536871975.2,286047000.5,N
1536871995.1,286047001.1,N
1536871996.0,286047001.1,N
1536872015.8,286046998.3,N
1536872035.6,286046998.3,N
1536872055.5,286047000.3,N
1536872075.3,286047000.7,N
1536872095.1,286046999.0,N
1536872115.9,286046998.7,N
1536872135.7,286047000.9,N
1536872155.6,286047001.2,N
1536872175.4,286046998.1,N
1536872195.2,286047000.8,N
1536872215.1,286047000.4,N
1536872216.0,286047000.4,N
1536872235.8,286046999.8,N
1536872255.6,286047000.9,N
1536872275.5,286046998.5,N
1536872295.3,286046996.5,N
1536872315.2,286046998.1,N
1536872335.9,286046998.9,N
1536872355.7,286046998.7,N
1536872375.6,286047000.6,N
1536872395.4,286047000.4,N
